Weather History for KBWD - November, 2011

Change the Weather History Date:

Tuesday, November 1, 2011

  Actual Average (KABI) Record (KABI)
Temperature  
Mean Temperature 65 °F 61 °F  
Max Temperature 80 °F 72 °F 91 °F (1945)
Min Temperature 50 °F 49 °F 31 °F (1991)
Degree Days  
Heating Degree Days 0 6  
Month to date heating degree days 6  
Since 1 July heating degree days 110  
Cooling Degree Days 0 2  
Month to date cooling degree days 2  
Year to date cooling degree days 2391  
Growing Degree Days 15 (Base 50)    
Moisture  
Dew Point 50 °F    
Average Humidity 60    
Maximum Humidity 87    
Minimum Humidity 34    
Precipitation  
Precipitation 0.00 in 0.07 in 0.82 in (1998)
Month to date precipitation 0.07  
Year to date precipitation 22.25  
Sea Level Pressure  
Sea Level Pressure 30.05 in    
Wind  
Wind Speed 9 mph (SSE)    
Max Wind Speed 20 mph    
Max Gust Speed 28 mph    
Visibility 10 miles    
Events      
T = Trace of Precipitation, MM = Missing Value Source: NWS Daily Summary

Daily Weather History Graph

Daily Weather History Graph

Search for Another Location

Airport or City:

Trip Planner

Search our weather history database for the weather conditions in past years. The results will help you decide how hot, cold, wet, or windy it might be!

Date:

Astronomy

Nov. 01, 2011 Rise Set
Actual Time 7:51 AM CDT 6:46 PM CDT
Civil Twilight 7:26 AM CDT 7:11 PM CDT
Nautical Twilight 6:57 AM CDT 7:40 PM CDT
Astronomical Twilight 6:29 AM CDT 8:08 PM CDT
Moon 1:35 PM CDT (11/1) No Moon Set
Length of Visible Light 11h 44m
Length of Day
10h 54m
Waxing Crescent, 40% of the Moon is Illuminated
Nov 1
Waxing Crescent
Nov 2
First Quarter
Nov 10
Full
Nov 18
Last Quarter
Nov 25
New

Hourly Weather History & Observations

Time (CDT) Temp. Dew Point Humidity Pressure Visibility Wind Dir Wind Speed Gust Speed Precip Events Conditions
12:15 AM 59.0 °F 46.4 °F 63% 30.10 in 10.0 mi SSE 5.8 mph - N/A   Mostly Cloudy
12:35 AM 59.0 °F 48.2 °F 67% 30.10 in 10.0 mi SSE 5.8 mph - N/A   Scattered Clouds
12:55 AM 59.0 °F 48.2 °F 67% 30.10 in 10.0 mi SSE 6.9 mph - N/A   Partly Cloudy
1:15 AM 59.0 °F 48.2 °F 67% 30.10 in 10.0 mi South 3.5 mph - N/A   Clear
1:35 AM 57.2 °F 48.2 °F 72% 30.10 in 10.0 mi SSE 5.8 mph - N/A   Clear
1:55 AM 57.2 °F 48.2 °F 72% 30.10 in 10.0 mi SSE 4.6 mph - N/A   Clear
2:15 AM 55.4 °F 48.2 °F 77% 30.10 in 10.0 mi SSE 4.6 mph - N/A   Clear
2:35 AM 55.4 °F 48.2 °F 77% 30.09 in 10.0 mi SSE 4.6 mph - N/A   Clear
2:55 AM 55.4 °F 48.2 °F 77% 30.09 in 10.0 mi South 5.8 mph - N/A   Clear
3:15 AM 55.4 °F 48.2 °F 77% 30.09 in 10.0 mi SSE 5.8 mph - N/A   Partly Cloudy
3:35 AM 55.4 °F 48.2 °F 77% 30.09 in 10.0 mi SSE 5.8 mph - N/A   Partly Cloudy
3:55 AM 53.6 °F 48.2 °F 82% 30.09 in 10.0 mi SSE 6.9 mph - N/A   Partly Cloudy
4:15 AM 55.4 °F 48.2 °F 77% 30.08 in 10.0 mi SSE 8.1 mph - N/A   Clear
4:35 AM 55.4 °F 48.2 °F 77% 30.08 in 10.0 mi SSE 6.9 mph - N/A   Clear
4:55 AM 55.4 °F 48.2 °F 77% 30.09 in 10.0 mi South 8.1 mph - N/A   Clear
5:15 AM 55.4 °F 48.2 °F 77% 30.09 in 10.0 mi SSE 8.1 mph - N/A   Clear
5:35 AM 53.6 °F 48.2 °F 82% 30.08 in 10.0 mi SSE 8.1 mph - N/A   Clear
5:55 AM 53.6 °F 48.2 °F 82% 30.09 in 10.0 mi South 8.1 mph - N/A   Clear
6:15 AM 53.6 °F 48.2 °F 82% 30.08 in 10.0 mi South 6.9 mph - N/A   Clear
6:35 AM 53.6 °F 48.2 °F 82% 30.09 in 10.0 mi SSE 5.8 mph - N/A   Clear
7:15 AM 53.6 °F 46.4 °F 77% 30.10 in 10.0 mi SSE 5.8 mph - N/A   Clear
7:35 AM 51.8 °F 46.4 °F 82% 30.10 in 10.0 mi SSE 6.9 mph - N/A   Clear
8:15 AM 50.0 °F 46.4 °F 87% 30.11 in 10.0 mi SE 4.6 mph - N/A   Clear
8:35 AM 50.0 °F 46.4 °F 87% 30.11 in 10.0 mi SSE 3.5 mph - N/A   Clear
8:55 AM 53.6 °F 48.2 °F 82% 30.12 in 10.0 mi SSE 4.6 mph - N/A   Clear
9:35 AM 59.0 °F 50.0 °F 72% 30.12 in 10.0 mi SSE 9.2 mph - N/A   Clear
9:55 AM 59.0 °F 50.0 °F 72% 30.13 in 10.0 mi SSE 8.1 mph - N/A   Clear
10:15 AM 62.6 °F 50.0 °F 63% 30.13 in 10.0 mi South 9.2 mph - N/A   Clear
10:35 AM 64.4 °F 51.8 °F 64% 30.12 in 10.0 mi SSW 15.0 mph - N/A   Clear
10:55 AM 64.4 °F 51.8 °F 64% 30.12 in 10.0 mi South 16.1 mph 21.9 mph N/A   Clear
11:15 AM 66.2 °F 51.8 °F 60% 30.11 in 10.0 mi South 16.1 mph 20.7 mph N/A   Clear
11:35 AM 68.0 °F 51.8 °F 56% 30.10 in 10.0 mi South 19.6 mph 24.2 mph N/A   Clear
11:55 AM 71.6 °F 51.8 °F 50% 30.10 in 10.0 mi South 17.3 mph 21.9 mph N/A   Clear
12:15 PM 71.6 °F 53.6 °F 53% 30.09 in 10.0 mi SSW 17.3 mph 23.0 mph N/A   Clear
12:35 PM 71.6 °F 53.6 °F 53% 30.08 in 10.0 mi South 15.0 mph 23.0 mph N/A   Clear
12:55 PM 73.4 °F 53.6 °F 50% 30.07 in 10.0 mi SSW 16.1 mph 27.6 mph N/A   Clear
1:15 PM 73.4 °F 53.6 °F 50% 30.06 in 10.0 mi South 15.0 mph 23.0 mph N/A   Clear
1:35 PM 75.2 °F 53.6 °F 47% 30.05 in 10.0 mi South 16.1 mph - N/A   Clear
1:55 PM 75.2 °F 53.6 °F 47% 30.03 in 10.0 mi South 15.0 mph 23.0 mph N/A   Clear
2:15 PM 75.2 °F 53.6 °F 47% 30.02 in 10.0 mi South 15.0 mph 25.3 mph N/A   Clear
2:35 PM 77.0 °F 53.6 °F 44% 30.01 in 10.0 mi South 16.1 mph 23.0 mph N/A   Clear
2:55 PM 77.0 °F 51.8 °F 41% 30.00 in 10.0 mi SSE 16.1 mph 21.9 mph N/A   Clear
3:15 PM 77.0 °F 51.8 °F 41% 29.99 in 10.0 mi South 15.0 mph 21.9 mph N/A   Clear
3:35 PM 78.8 °F 51.8 °F 39% 29.99 in 10.0 mi South 15.0 mph 20.7 mph N/A   Clear
4:15 PM 80.6 °F 50.0 °F 34% 29.98 in 10.0 mi South 16.1 mph - N/A   Clear
4:35 PM 80.6 °F 50.0 °F 34% 29.97 in 10.0 mi SSE 16.1 mph 21.9 mph N/A   Clear
4:55 PM 78.8 °F 50.0 °F 36% 29.97 in 10.0 mi South 16.1 mph 20.7 mph N/A   Clear
5:15 PM 78.8 °F 50.0 °F 36% 29.97 in 10.0 mi SSE 16.1 mph 20.7 mph N/A   Clear
5:35 PM 77.0 °F 50.0 °F 39% 29.96 in 10.0 mi SSE 12.7 mph 20.7 mph N/A   Clear
5:55 PM 77.0 °F 50.0 °F 39% 29.96 in 10.0 mi SSE 16.1 mph 24.2 mph N/A   Clear
6:15 PM 77.0 °F 50.0 °F 39% 29.95 in 10.0 mi SSE 15.0 mph 19.6 mph N/A   Clear
6:35 PM 75.2 °F 50.0 °F 41% 29.95 in 10.0 mi SSE 12.7 mph - N/A   Clear
6:55 PM 73.4 °F 50.0 °F 44% 29.95 in 10.0 mi SSE 11.5 mph 18.4 mph N/A   Clear
7:15 PM 73.4 °F 50.0 °F 44% 29.96 in 10.0 mi SSE 10.4 mph - N/A   Clear
7:35 PM 71.6 °F 50.0 °F 46% 29.96 in 10.0 mi SSE 9.2 mph - N/A   Clear
7:55 PM 71.6 °F 50.0 °F 46% 29.97 in 10.0 mi SE 10.4 mph - N/A   Partly Cloudy
8:15 PM 69.8 °F 50.0 °F 49% 29.97 in 10.0 mi SE 11.5 mph - N/A   Partly Cloudy
8:35 PM 69.8 °F 50.0 °F 49% 29.98 in 10.0 mi SE 12.7 mph - N/A   Clear
8:55 PM 68.0 °F 50.0 °F 52% 29.98 in 10.0 mi SE 10.4 mph - N/A   Clear
9:15 PM 68.0 °F 50.0 °F 52% 29.99 in 10.0 mi SSE 10.4 mph - N/A   Clear
9:35 PM 68.0 °F 50.0 °F 52% 29.99 in 10.0 mi SSE 10.4 mph - N/A   Clear
9:55 PM 66.2 °F 50.0 °F 56% 29.99 in 10.0 mi SSE 9.2 mph - N/A   Partly Cloudy
10:15 PM 66.2 °F 50.0 °F 56% 29.99 in 10.0 mi SSE 8.1 mph - N/A   Scattered Clouds
10:35 PM 66.2 °F 50.0 °F 56% 29.99 in 10.0 mi SSE 8.1 mph - N/A   Mostly Cloudy
11:15 PM 64.4 °F 50.0 °F 59% 29.99 in 10.0 mi SSE 8.1 mph - N/A   Scattered Clouds
11:35 PM 64.4 °F 50.0 °F 59% 29.99 in 10.0 mi SE 8.1 mph - N/A   Partly Cloudy